Date String (YYYY-MM-DD hh:mm:ss) UTC,Instrument flags,Ambient pressure (hPa),Sample flow (lpm),Bypass flow (lpm),Sample temperature (°C),Ambient temperature (°C),ASC tube jacket temperature (°C),LED temperature (°C),Box temperature (°C),Sample RH (%),Span deviation,Mass concentration (μg/m³),Mass concentration (μg/m³),Mass concentration (μg/m³)
DateTimeUTC,F1_M11,P_M11,Q1_M11,Q2_M11,T1_M11,T2_M11,T3_M11,T4_M11,T5_M11,U1_M11,ZSPAN_M11,X0_M11,X2_M11,X1_M11
2022-03-15 10:00:00,,0829.6,5.00,0.00,23.1,22.3,00.0,32.2,24.8,09.1,0000.0,0007.73,0002.91,0001.84
2022-03-15 10:01:00,,0829.6,5.01,0.00,23.1,22.3,00.0,32.2,24.8,09.1,0000.0,0007.77,0002.88,0001.80
2022-03-15 10:02:00,,0829.5,4.99,0.00,23.1,22.3,00.0,32.2,24.8,09.1,0000.0,0007.55,0002.76,0001.76
2022-03-15 10:03:00,,0829.5,4.99,0.00,23.1,22.3,00.0,32.2,24.8,09.1,0000.0,0007.36,0002.66,0001.72
2022-03-15 10:04:00,,0829.5,4.99,0.00,23.1,22.3,00.0,32.2,24.8,09.1,0000.0,0006.21,0002.50,0001.69
2022-03-15 10:05:00,,0829.5,5.00,0.00,23.1,22.3,00.0,32.2,24.8,09.1,0000.0,0005.21,0002.39,0001.68
2022-03-15 10:06:00,,0829.6,4.99,0.00,23.1,22.3,00.0,32.2,24.8,09.1,0000.0,0004.98,0002.32,0001.65
2022-03-15 10:07:00,,0829.5,4.99,0.00,23.0,22.2,00.0,32.2,24.7,09.1,0000.0,0004.79,0002.25,0001.62
2022-03-15 10:08:00,,0829.5,5.00,0.00,23.0,22.2,00.0,32.1,24.7,09.2,0000.0,0004.87,0002.22,0001.61
2022-03-15 10:09:00,,0829.5,5.00,0.00,23.0,22.2,00.0,32.1,24.7,09.2,0000.0,0005.03,0002.27,0001.61
2022-03-15 10:10:00,,0829.5,5.00,0.00,23.0,22.2,00.0,32.1,24.6,09.2,0000.0,0005.02,0002.35,0001.63
2022-03-15 10:11:00,,0829.6,5.00,0.00,22.9,22.1,00.0,32.1,24.6,09.3,0000.0,0004.17,0002.35,0001.65
2022-03-15 10:12:00,,0829.6,5.01,0.00,22.9,22.1,00.0,32.1,24.6,09.3,0000.0,0004.30,0002.34,0001.65
2022-03-15 10:13:00,,0829.6,5.00,0.00,22.9,22.1,00.0,32.0,24.6,09.4,0000.0,0004.99,0002.37,0001.67
2022-03-15 10:14:00,,0829.5,4.99,0.00,22.9,22.1,00.0,32.0,24.5,09.4,0000.0,0005.08,0002.43,0001.70
2022-03-15 10:15:00,,0829.6,5.00,0.00,22.8,22.0,00.0,32.0,24.5,09.5,0000.0,0005.22,0002.53,0001.74
2022-03-15 10:16:00,,0829.5,5.00,0.00,22.8,22.0,00.0,32.0,24.4,09.5,0000.0,0005.48,0002.64,0001.78
2022-03-15 10:17:00,,0829.5,5.00,0.00,22.8,22.0,00.0,32.0,24.4,09.5,0000.0,0005.68,0002.72,0001.81
2022-03-15 10:18:00,,0829.6,5.00,0.00,22.8,22.0,00.0,32.0,24.4,09.6,0000.0,0005.89,0002.78,0001.85
2022-03-15 10:19:00,,0829.5,5.00,0.00,22.7,21.9,00.0,31.9,24.3,09.5,0000.0,0005.94,0002.86,0001.89
2022-03-15 10:20:00,,0829.6,5.00,0.00,22.7,21.9,00.0,31.9,24.3,09.6,0000.0,0006.01,0002.89,0001.91
2022-03-15 10:21:00,,0829.5,5.00,0.00,22.7,21.9,00.0,31.9,24.3,09.6,0000.0,0006.10,0002.89,0001.94
2022-03-15 10:22:00,,0829.5,5.00,0.00,22.7,21.9,00.0,31.9,24.3,09.7,0000.0,0007.43,0002.92,0001.94
2022-03-15 10:23:00,,0829.5,5.00,0.00,22.7,21.8,00.0,31.9,24.3,09.8,0000.0,0007.24,0002.99,0001.96
2022-03-15 10:24:00,,0829.5,5.00,0.00,22.6,21.8,00.0,31.8,24.3,09.8,0000.0,0006.66,0003.01,0001.99
2022-03-15 10:25:00,,0829.5,5.01,0.00,22.6,21.8,00.0,31.8,24.2,09.9,0000.0,0007.24,0003.03,0002.01
2022-03-15 10:26:00,,0829.6,5.01,0.00,22.6,21.8,00.0,31.8,24.3,09.9,0000.0,0008.21,0003.09,0002.04
2022-03-15 10:27:00,,0829.6,4.98,0.00,22.6,21.8,00.0,31.8,24.3,09.9,0000.0,0008.24,0003.09,0002.06
2022-03-15 10:28:00,,0829.5,5.01,0.00,22.6,21.9,00.0,31.8,24.4,09.9,0000.0,0008.69,0003.12,0002.08
2022-03-15 10:29:00,,0829.5,5.01,0.00,22.6,21.9,00.0,31.7,24.4,10.0,0000.0,0009.00,0003.14,0002.11
2022-03-15 10:30:00,,0829.5,5.00,0.00,22.7,21.9,00.0,31.7,24.4,10.0,0000.0,0009.02,0003.16,0002.15
2022-03-15 10:31:00,,0829.5,4.99,0.00,22.6,21.9,00.0,31.7,24.4,10.0,0000.0,0009.10,0003.17,0002.18
2022-03-15 10:32:00,,0829.5,5.01,0.00,22.6,21.9,00.0,31.7,24.3,10.0,0000.0,0009.90,0003.23,0002.22
2022-03-15 10:33:00,,0829.5,5.01,0.00,22.6,21.9,00.0,31.7,24.3,10.1,0000.0,0009.37,0003.27,0002.25
2022-03-15 10:34:00,,0829.5,4.99,0.00,22.6,21.8,00.0,31.7,24.3,10.1,0000.0,0009.20,0003.28,0002.28
2022-03-15 10:35:00,,0829.4,4.99,0.00,22.6,21.8,00.0,31.7,24.2,10.1,0000.0,0009.58,0003.29,0002.30
2022-03-15 10:36:00,,0829.5,5.00,0.00,22.5,21.8,00.0,31.7,24.2,10.2,0000.0,0009.32,0003.29,0002.32
2022-03-15 10:37:00,,0829.5,5.01,0.00,22.5,21.8,00.0,31.6,24.2,10.3,0000.0,0008.75,0003.29,0002.34
2022-03-15 10:38:00,,0829.5,4.98,0.00,22.5,21.7,00.0,31.6,24.2,10.3,0000.0,0008.81,0003.32,0002.38
2022-03-15 10:39:00,,0829.5,5.00,0.00,22.5,21.7,00.0,31.6,24.1,10.3,0000.0,0008.36,0003.32,0002.40
2022-03-15 10:40:00,,0829.5,5.01,0.00,22.5,21.7,00.0,31.6,24.1,10.3,0000.0,0008.19,0003.38,0002.43
2022-03-15 10:41:00,,0829.5,5.00,0.00,22.4,21.7,00.0,31.6,24.1,10.3,0000.0,0008.74,0003.40,0002.44
2022-03-15 10:42:00,,0829.5,4.99,0.00,22.4,21.6,00.0,31.6,24.1,10.4,0000.0,0009.41,0003.42,0002.45
2022-03-15 10:43:00,,0829.5,4.99,0.00,22.4,21.6,00.0,31.6,24.1,10.4,0000.0,0009.28,0003.43,0002.46
2022-03-15 10:44:00,,0829.5,5.00,0.00,22.4,21.6,00.0,31.5,24.1,10.4,0000.0,0009.32,0003.40,0002.49
2022-03-15 10:45:00,,0829.5,5.01,0.00,22.4,21.6,00.0,31.5,24.0,10.4,0000.0,0009.94,0003.41,0002.51
2022-03-15 10:46:00,,0829.4,5.00,0.00,22.3,21.6,00.0,31.5,24.0,10.5,0000.0,0010.05,0003.43,0002.53
2022-03-15 10:47:00,,0829.4,5.00,0.00,22.3,21.6,00.0,31.5,24.0,10.5,0000.0,0009.97,0003.47,0002.56
2022-03-15 10:48:00,,0829.4,5.01,0.00,22.3,21.5,00.0,31.5,24.0,10.6,0000.0,0010.09,0003.47,0002.56
2022-03-15 10:49:00,,0829.4,4.99,0.00,22.3,21.5,00.0,31.5,24.0,10.6,0000.0,0010.40,0003.44,0002.57
2022-03-15 10:50:00,,0829.3,5.00,0.00,22.3,21.5,00.0,31.4,24.0,10.7,0000.0,0010.80,0003.46,0002.59
2022-03-15 10:51:00,,0829.4,5.00,0.00,22.3,21.5,00.0,31.4,24.0,10.7,0000.0,0011.28,0003.43,0002.60
2022-03-15 10:52:00,,0829.4,5.01,0.00,22.3,21.5,00.0,31.4,24.0,10.6,0000.0,0011.05,0003.48,0002.63
2022-03-15 10:53:00,,0829.4,5.01,0.00,22.3,21.5,00.0,31.4,23.9,10.7,0000.0,0010.36,0003.53,0002.67
2022-03-15 10:54:00,,0829.4,4.98,0.00,22.2,21.5,00.0,31.4,23.9,10.6,0000.0,0009.82,0003.53,0002.69
2022-03-15 10:55:00,,0829.6,5.01,0.00,22.2,21.5,00.0,31.4,23.9,10.6,0000.0,0009.75,0003.58,0002.72
2022-03-15 10:56:00,,0829.5,5.01,0.00,22.3,21.5,00.0,31.4,24.0,10.6,0000.0,0009.48,0003.56,0002.72
2022-03-15 10:57:00,,0829.5,5.00,0.00,22.2,21.5,00.0,31.4,23.9,10.7,0000.0,0009.57,0003.57,0002.72
2022-03-15 10:58:00,,0829.4,4.97,0.00,22.2,21.5,00.0,31.3,23.9,10.7,0000.0,0009.87,0003.60,0002.73
2022-03-15 10:59:00,,0829.4,5.01,0.00,22.2,21.5,00.0,31.3,23.9,10.7,0000.0,0009.80,0003.64,0002.76
